EGPB

Sumburgh Airport

Airport
ICAO code
EGPB
IATA Code
LSI
Summary
ICAO Region
EUR
ICAO Territory
Location

Sumburgh, Shetland, Scotland

Serving
Shetland
Elevation
20 ft
Coordinates
59° 52' 39" N , 1° 17' 31" W
KCC
Metar
Observation
EGPB 062350Z 01016G26KT 9999 VCSH FEW015 SCT030 02/M01 Q1024
Station
Sumburgh Cape
Date/Time
2022-12-06 23:50:00
Wind direction
10°
Wind speed
16 kts
Lowest cloud amount
few clouds
Temperature
2°C
Dew point
-1°C
Humidity
80%
QNH
1024 hPa
Weather condition
in vicinity: showers

Sumburgh Airport is the main airport serving the Shetland Islands in Scotland. It is located on the southern tip of the mainland, 17 nm south of Lerwick.

Climatology

Temperate Marine climate/Oceanic climate (Köppen climate classification Cfb). Moderately cool summer and comparatively warm winter with a temperature range of only 14°C. Prevailing south-westerly winds from the Atlantic Ocean.

Runways

Designator Length Width Surface Rops
6/24 550 45 ASP Yes/Yes
9/27 1180 46 ASP Yes/Yes
15/33 1426 46 ASP Yes/Yes

SKYbrary Partners:

Safety knowledge contributed by: